Regional Weather Roundup
Issued by NWS Green Bay, WI

Home | Current Version | Previous Version | Text Only | Print | Product List | Glossary On
Versions: 1 2 3 4 5 6 7 8 9 10 11 12 13 14 15 16 17 18 19 20 21 22 23 24 25 26 27 28 29 30 31 32 33 34 35 36 37 38 39 40 41 42 43 44 45 46 47 48 49 50
000
ASUS43 KGRB 210011
RWRGRB

NORTH-CENTRAL AND NORTHEAST WISCONSIN REGIONAL WEATHER ROUNDUP
NATIONAL WEATHER SERVICE GREEN BAY WI
700 PM CDT THU JUL 20 2017

WIZ005-009-010>012-018-019-210100-
NORTH CENTRAL WISCONSIN

CITY           SKY/WX    TMP DP  RH WIND       PRES   REMARKS
IRONWOOD       SUNNY     79  63  57 W8        29.97F
MANITOWISH WTR SUNNY     79  59  50 W5        30.00S
ARBOR VITAE    SUNNY     80  57  45 NW3       29.99S
EAGLE RIVER    SUNNY     79  53  40 NW7       29.99S
LAND O LAKES   SUNNY     79  51  38 NW6       30.01S
RHINELANDER    SUNNY     82  59  45 W5        30.00R
PHILLIPS       SUNNY     81  62  53 W3        29.99F
ANTIGO         SUNNY     81  63  55 W8        29.99S
TOMAHAWK         N/A     80  60  51 W6        30.00S
MERRILL        SUNNY     82  64  54 W7        29.99S
$$

WIZ013-073-210100-
NORTHEAST WISCONSIN

CITY           SKY/WX    TMP DP  RH WIND       PRES   REMARKS
IRON MOUNTAIN  SUNNY     83  58  42 N9        29.93R
MARINETTE      SUNNY     85  66  53 CALM      29.92R
OCONTO         SUNNY     84  65  52 W3        29.92R
$$

WIZ017-030-035>037-045-210100-
CENTRAL WISCONSIN

CITY           SKY/WX    TMP DP  RH WIND       PRES   REMARKS
MEDFORD        SUNNY     80  64  58 W6        30.00F
WAUSAU         SUNNY     83  61  47 NW9       29.97R
MOSINEE        MOSUNNY   81  64  57 W7        30.00R
MARSHFIELD     MOSUNNY   81  64  56 NW9       29.99S
WISC RAPIDS    MOSUNNY   83  67  58 NW6       29.99S
STEVENS POINT  MOSUNNY   80  64  58 W6        29.99S
WAUPACA        PTSUNNY   85  64  49 NW6       29.96S
SHAWANO        SUNNY     87  60  41 NW3       29.94S
CLINTONVILLE   SUNNY     84  59  42 NW6       29.95R
WAUTOMA        CLOUDY    81  72  74 NW5       29.96F
$$

WIZ038-039-048-051-210100-
FOX VALLEY

CITY           SKY/WX    TMP DP  RH WIND       PRES   REMARKS
NWS GREEN BAY  SUNNY     85  70  60 W3        29.94R
APPLETON       PTSUNNY   82  61  47 NW5       29.94S
OSHKOSH        PTSUNNY   81  69  67 W5        29.95S
FOND DU LAC    CLOUDY    82  67  60 NW6       29.96R
$$

WIZ022-050-052-210100-
EAST CENTRAL WISCONSIN

CITY           SKY/WX    TMP DP  RH WIND       PRES   REMARKS
EPHRAIM        FAIR      81  67  63 CALM      29.91S
WASHINGTON ISL NOT AVBL
STURGEON BAY     N/A     83  67  58 SW5       29.93S
MANITOWOC      SUNNY     76  68  76 SE5       29.95R
SHEBOYGAN      SUNNY     81  72  74 NW3       29.94S
$$

LMZ563-521-522-541>543-210100-
LAKESHORE

STATION/POSITION TIME  TEMP    WIND        PRES    VSBY  WAVE
                       AIR SEA DIR/SP/G                  HT/PER
                 (UTC) (F)     (DEG/KT/KT) (MB)    (MI)  (FT/S)
SHEBOYGAN LKSHOR 0000   70     180/ 17/ 19 1013.4R
KEWAUNEE LKSHORE 2342   71     180/  8/  9 1013.1F
NORTHPORT PIER   2340   81     180/  3/  6 1012.2S
N MID LAKE BUOY  2350   69 66  170/ 10/ 10 1013.3          1/ 5
S GREEN BAY BUOY 0000   78 74  200/  6/  8 1013.3
SISTER BAY LKSHO 0002   84     240/  6/  7   N/A
CHAMBERS ISLAND  2340   81     150/  2/  4 1012.2S
MENOMINEE LKSHOR 2342   86     300/  4/  6 1012.6R
$$




USA.gov is the U.S. government's official web portal to all federal, state and local government web resources and services.